Location: ???????
(55.4362°N, 38.1183°E)
Time: 13:43:40
(UTC+00:00)

Cosmos 2219 Rocket - Pass Details

Date: 22 October 2021
Orbit: 826 x 848 km, 71.0° (Epoch: 01 December)

Event Time Altitude Azimuth Distance (km) Brightness Sun altitude
Exits shadow 00:25:01 13° 338° (NNW) 2,262 4.5 -31.9°
Maximum altitude 00:28:59 26° 29° (NNE) 1,617 4.1 -31.4°
Drops below altitude 10° 00:33:39 10° 85° (E) 2,467 5.4 -30.9°
Sets 00:36:32 0° 98° (E) 3,403 6.1 -30.5°
